• In Uzbekistan
  • List of Countries
  • For 7 days
  • Water Temperature
  • Satellite Maps
  • Weather Map
  • Weather Widgets
  • user-avatar
    Login

    Hourly Weather Linz

    Today, 26 July, Wednesday

    Time Temperature Precipitation Wind Pressure Humidity
    00:00 +12°C° 0.3 mm 3 mps 727 mmHg 94%
    01:00 +12°C° 0.3 mm 3 mps 727 mmHg 94%
    02:00 +12°C° 0.5 mm 3 mps 727 mmHg 94%
    03:00 +12°C° 0.5 mm 3 mps 726 mmHg 94%
    04:00 +12°C° 0.5 mm 3 mps 726 mmHg 94%
    05:00 +12°C° 1.1 mm 3 mps 726 mmHg 94%
    06:00 +12°C° 1.1 mm 4 mps 726 mmHg 94%
    07:00 +12°C° 1.1 mm 4 mps 726 mmHg 94%
    08:00 +12°C° 1.1 mm 4 mps 726 mmHg 95%
    09:00 +12°C° 1.1 mm 4 mps 726 mmHg 95%
    10:00 +13°C° 1.1 mm 4 mps 726 mmHg 95%
    11:00 +13°C° 1.6 mm 4 mps 726 mmHg 95%
    12:00 +13°C° 1.6 mm 4 mps 727 mmHg 95%
    13:00 +13°C° 1.6 mm 4 mps 727 mmHg 94%
    14:00 +13°C° 0.7 mm 4 mps 727 mmHg 94%
    15:00 +13°C° 0.7 mm 4 mps 728 mmHg 93%
    16:00 +13°C° 0.7 mm 4 mps 728 mmHg 93%
    17:00 +13°C° 0.5 mm 4 mps 728 mmHg 93%
    18:00 +13°C° 0.5 mm 4 mps 728 mmHg 94%
    19:00 +13°C° 0.5 mm 4 mps 729 mmHg 95%
    20:00 +13°C° 0.6 mm 4 mps 729 mmHg 95%
    21:00 +13°C° 0.6 mm 4 mps 729 mmHg 95%
    22:00 +13°C° 0.6 mm 4 mps 729 mmHg 95%
    23:00 +13°C° 1.6 mm 4 mps 729 mmHg 95%

    Tomorrow, 27 July, Thursday

    Time Temperature Precipitation Wind Pressure Humidity
    00:00 +13°C° 1.6 mm 4 mps 729 mmHg 95%
    01:00 +13°C° 1.6 mm 4 mps 729 mmHg 96%
    02:00 +13°C° 1.9 mm 4 mps 729 mmHg 96%
    03:00 +13°C° 1.9 mm 4 mps 730 mmHg 96%
    04:00 +13°C° 1.9 mm 4 mps 730 mmHg 96%
    05:00 +14°C° 0.7 mm 3 mps 730 mmHg 95%
    06:00 +14°C° 0.7 mm 3 mps 730 mmHg 95%
    07:00 +14°C° 0.7 mm 3 mps 730 mmHg 94%
    08:00 +17°C° 0.1 mm 3 mps 730 mmHg 88%
    09:00 +18°C° 0.1 mm 4 mps 730 mmHg 83%
    10:00 +19°C° 0.1 mm 4 mps 731 mmHg 77%
    11:00 +19°C° 0.1 mm 4 mps 730 mmHg 76%
    12:00 +20°C° 0.1 mm 4 mps 730 mmHg 75%
    13:00 +20°C° 0.1 mm 4 mps 730 mmHg 74%
    14:00 +19°C° 0.2 mm 4 mps 730 mmHg 77%
    15:00 +18°C° 0.2 mm 3 mps 730 mmHg 80%
    16:00 +17°C° 0.2 mm 3 mps 730 mmHg 84%
    17:00 +17°C° 0.4 mm 3 mps 730 mmHg 87%
    18:00 +17°C° 0.4 mm 2 mps 730 mmHg 90%
    19:00 +16°C° 0.4 mm 2 mps 730 mmHg 94%
    20:00 +16°C° 0.5 mm 2 mps 731 mmHg 94%
    21:00 +16°C° 0.5 mm 2 mps 731 mmHg 95%
    22:00 +16°C° 0.5 mm 2 mps 731 mmHg 95%
    23:00 +16°C° 0.2 mm 1 mps 731 mmHg 95%

    Day after tomorrow, 28 July, Friday

    Time Temperature Precipitation Wind Pressure Humidity
    00:00 +15°C° 0.2 mm 1 mps 731 mmHg 95%
    01:00 +15°C° 0.2 mm 1 mps 731 mmHg 95%
    02:00 +15°C° 0.4 mm 1 mps 732 mmHg 95%
    03:00 +15°C° 0.4 mm 1 mps 732 mmHg 96%
    04:00 +15°C° 0.4 mm 2 mps 732 mmHg 96%
    05:00 +16°C° 0.2 mm 1 mps 732 mmHg 96%
    06:00 +18°C° 0.2 mm 1 mps 732 mmHg 95%
    07:00 +18°C° 0.2 mm 1 mps 732 mmHg 94%
    08:00 +19°C° 0.3 mm 1 mps 732 mmHg 91%
    09:00 +20°C° 0.3 mm 1 mps 732 mmHg 87%
    10:00 +21°C° 0.3 mm 1 mps 732 mmHg 84%
    11:00 +21°C° 0.6 mm 2 mps 732 mmHg 82%
    12:00 +21°C° 0.6 mm 3 mps 732 mmHg 81%
    13:00 +22°C° 0.6 mm 4 mps 733 mmHg 79%
    14:00 +22°C° 0.3 mm 4 mps 733 mmHg 78%
    15:00 +22°C° 0.3 mm 4 mps 733 mmHg 76%
    16:00 +22°C° 0.3 mm 4 mps 733 mmHg 74%
    17:00 +22°C° 0 mm 3 mps 733 mmHg 78%
    18:00 +21°C° 0 mm 2 mps 734 mmHg 82%
    19:00 +20°C° 0 mm 2 mps 734 mmHg 86%
    20:00 +20°C° 0 mm 1 mps 734 mmHg 89%
    21:00 +19°C° 0 mm 1 mps 735 mmHg 91%
    22:00 +16°C° 0 mm 1 mps 735 mmHg 94%
    23:00 +16°C° 0 mm 1 mps 735 mmHg 94%

    29 July, Saturday

    Time Temperature Precipitation Wind Pressure Humidity
    00:00 +16°C° 0 mm 1 mps 735 mmHg 94%
    01:00 +15°C° 0 mm 1 mps 735 mmHg 94%
    02:00 +15°C° 0 mm 1 mps 735 mmHg 93%
    03:00 +15°C° 0 mm 1 mps 735 mmHg 93%
    04:00 +15°C° 0 mm 1 mps 735 mmHg 93%
    05:00 +16°C° 0 mm 1 mps 735 mmHg 89%
    06:00 +19°C° 0 mm 1 mps 735 mmHg 86%
    07:00 +20°C° 0 mm 1 mps 736 mmHg 83%
    08:00 +23°C° 0 mm 1 mps 736 mmHg 75%
    09:00 +25°C° 0 mm 1 mps 736 mmHg 68%
    10:00 +27°C° 0 mm 1 mps 736 mmHg 60%
    11:00 +26°C° 0.1 mm 1 mps 736 mmHg 64%
    12:00 +26°C° 0.1 mm 2 mps 736 mmHg 67%
    13:00 +25°C° 0.1 mm 2 mps 736 mmHg 71%
    14:00 +25°C° 0.2 mm 2 mps 736 mmHg 75%
    15:00 +24°C° 0.2 mm 1 mps 736 mmHg 78%
    16:00 +23°C° 0.2 mm 1 mps 736 mmHg 82%
    17:00 +22°C° 1.1 mm 1 mps 736 mmHg 85%
    18:00 +22°C° 1.1 mm 1 mps 736 mmHg 88%
    19:00 +21°C° 1.1 mm 1 mps 736 mmHg 91%
    20:00 +20°C° 2 mm 1 mps 736 mmHg 93%
    21:00 +20°C° 2 mm 1 mps 736 mmHg 95%
    22:00 +19°C° 2 mm 1 mps 737 mmHg 97%
    23:00 +19°C° 0.5 mm 1 mps 736 mmHg 96%

    30 July, Sunday

    Time Temperature Precipitation Wind Pressure Humidity
    00:00 +19°C° 0.5 mm 1 mps 736 mmHg 96%
    01:00 +19°C° 0.5 mm 1 mps 736 mmHg 96%
    02:00 +19°C° 0 mm 1 mps 736 mmHg 96%
    03:00 +18°C° 0 mm 1 mps 735 mmHg 95%
    04:00 +18°C° 0 mm 1 mps 735 mmHg 95%
    05:00 +19°C° 0 mm 1 mps 735 mmHg 93%
    06:00 +20°C° 0 mm 1 mps 735 mmHg 92%
    07:00 +21°C° 0 mm 1 mps 735 mmHg 91%
    08:00 +23°C° 0 mm 1 mps 735 mmHg 81%
    09:00 +25°C° 0 mm 1 mps 735 mmHg 71%
    10:00 +27°C° 0 mm 1 mps 735 mmHg 62%
    11:00 +28°C° 0 mm 1 mps 734 mmHg 58%
    12:00 +29°C° 0 mm 1 mps 734 mmHg 54%
    13:00 +31°C° 0 mm 1 mps 734 mmHg 50%
    14:00 +31°C° 0 mm 1 mps 734 mmHg 50%
    15:00 +31°C° 0 mm 1 mps 733 mmHg 50%
    16:00 +31°C° 0 mm 1 mps 733 mmHg 51%
    17:00 +29°C° 0 mm 1 mps 733 mmHg 59%
    18:00 +28°C° 0 mm 1 mps 733 mmHg 67%
    19:00 +26°C° 0 mm 1 mps 733 mmHg 75%
    20:00 +25°C° 0 mm 1 mps 734 mmHg 77%
    21:00 +24°C° 0 mm 1 mps 734 mmHg 79%
    22:00 +22°C° 0 mm 1 mps 734 mmHg 82%
    23:00 +22°C° 0 mm 1 mps 735 mmHg 83%

    31 July, Monday

    Time Temperature Precipitation Wind Pressure Humidity
    00:00 +22°C° 0 mm 1 mps 735 mmHg 84%
    01:00 +21°C° 0 mm 1 mps 735 mmHg 85%
    02:00 +21°C° 0 mm 1 mps 735 mmHg 85%
    03:00 +21°C° 0 mm 1 mps 735 mmHg 85%
    04:00 +20°C° 0 mm 1 mps 735 mmHg 86%
    05:00 +22°C° 0 mm 1 mps 735 mmHg 83%
    06:00 +23°C° 0 mm 1 mps 735 mmHg 80%
    07:00 +24°C° 0 mm 1 mps 735 mmHg 77%
    08:00 +26°C° 0 mm 1 mps 735 mmHg 70%
    09:00 +29°C° 0 mm 2 mps 735 mmHg 62%
    10:00 +31°C° 0 mm 3 mps 735 mmHg 54%
    11:00 +33°C° 0 mm 3 mps 735 mmHg 50%
    12:00 +34°C° 0 mm 3 mps 735 mmHg 46%
    13:00 +35°C° 0 mm 4 mps 734 mmHg 42%
    14:00 +35°C° 0 mm 4 mps 734 mmHg 43%
    15:00 +35°C° 0 mm 4 mps 734 mmHg 44%
    16:00 +35°C° 0 mm 3 mps 733 mmHg 45%
    17:00 +33°C° 0 mm 3 mps 733 mmHg 54%
    18:00 +30°C° 0 mm 3 mps 733 mmHg 62%
    19:00 +28°C° 0 mm 2 mps 733 mmHg 70%
    20:00 +27°C° 0 mm 2 mps 733 mmHg 71%
    21:00 +26°C° 0 mm 2 mps 733 mmHg 72%
    22:00 +25°C° 0 mm 2 mps 733 mmHg 74%
    23:00 +24°C° 0 mm 2 mps 733 mmHg 76%
    Show more